Location: Nashville
(36.1660°N, 86.7840°W)
Time: 09:21:38
(UTC-05:00)

Hubble Space Telescope - Pass Details

Date: 02 December 2023
Orbit: 506 x 509 km, 28.5° (Epoch: 08 September)

Event Time Altitude Azimuth Distance (km) Brightness Sun altitude
Rises 18:19:07 0° 254° (WSW) 2,602 5.8 -21.1°
Reaches altitude 10° 18:22:50 10° 218° (SW) 1,725 4.0 -21.8°
Maximum altitude 18:24:02 11° 200° (SSW) 1,655 3.6 -22.0°
Drops below altitude 10° 18:25:13 10° 183° (S) 1,727 3.5 -22.3°
Enters shadow 18:26:39 - 166° (SSE) 1,979 3.6 -22.5°
